Theta_e
303 304 305 305 306 308 310 313 313 314 314 314 316 317 316 315 314 311 308 306 306 304 302 303 302 302 300 299 298 297 299 301 303 294 293 290 288 287 287 288 287 286 286
300 301 301 301 302 304 305 306 307 308 309 311 311 311 310 308 307 306 303 302 302 299 299 299 298 297 296 295 295 294 294 294 297 291 289 288 287 286 286 285 284 285 285
298 299 299 299 300 301 301 301 302 303 303 303 304 304 302 301 300 301 300 299 300 299 297 297 295 294 292 292 292 290 290 289 290 290 286 287 286 285 285 285 284 285 284
296 297 297 297 297 298 297 297 297 297 298 298 298 298 298 297 297 295 295 295 294 294 293 293 292 291 290 289 288 289 288 288 288 287 285 284 285 282 283 282 282 283 282
295 295 295 296 296 295 294 294 294 294 294 295 295 294 294 294 293 292 292 292 291 290 289 289 289 288 288 288 287 286 287 286 286 285 283 283 282 280 280 280 280 280 282
294 293 294 293 293 292 292 291 291 291 291 291 289 290 291 290 291 291 291 290 288 287 285 285 284 283 284 285 286 288 288 285 284 284 283 282 280 279 279 279 279 278 279
292 291 291 291 290 290 289 290 289 289 290 288 288 288 288 289 289 290 289 287 286 286 284 283 282 282 283 283 284 284 282 283 285 284 282 281 278 279 279 278 277 276 277
290 290 290 289 289 289 288 287 288 288 288 288 288 288 287 287 288 289 288 286 285 285 284 283 282 282 283 283 282 280 280 280 280 279 281 279 279 278 278 278 276 275 276
288 288 288 288 287 287 286 286 287 287 286 286 286 286 285 285 289 288 286 284 283 283 283 283 282 282 284 284 280 279 278 277 279 280 280 280 279 279 278 276 274 273 274
285 284 285 286 286 286 286 286 286 285 285 284 284 284 284 284 288 288 286 283 281 281 280 281 282 281 283 284 279 278 277 276 276 276 276 276 276 275 275 275 274 273 272
282 283 283 284 284 285 285 285 284 283 282 282 282 282 283 283 285 287 287 281 281 280 279 279 280 283 283 283 281 278 278 277 276 274 273 273 274 273 273 273 273 273 272
280 280 281 282 283 283 283 283 282 282 281 281 280 281 281 282 284 287 287 284 283 280 278 279 279 282 283 283 281 280 281 278 274 273 272 272 272 272 271 271 271 271 272
277 277 278 280 281 281 281 281 282 281 280 280 280 279 280 280 282 285 286 285 283 280 280 279 281 282 282 281 280 279 277 273 272 272 272 272 272 271 270 269 269 269 269
275 276 278 278 279 280 281 281 281 281 280 280 280 279 280 280 280 281 283 283 282 281 280 279 280 281 280 278 277 277 273 272 272 272 272 271 270 268 268 269 268 268 267
274 275 277 278 279 279 279 280 280 281 281 280 281 281 280 279 279 282 283 281 281 280 278 278 278 277 275 273 274 271 271 271 270 272 270 268 268 268 268 268 267 267 265
272 275 276 276 277 277 277 278 281 281 282 282 283 282 281 282 283 282 283 283 283 282 276 275 275 274 272 272 272 269 269 268 269 269 269 268 267 267 266 266 266 265 265
270 272 273 274 275 275 275 275 275 278 281 281 282 281 282 282 281 282 282 283 283 281 274 274 273 272 271 270 270 269 268 268 269 268 267 267 267 266 265 265 265 265 264
269 269 271 273 274 275 275 275 275 274 274 276 279 280 281 282 281 281 282 283 279 280 273 272 272 271 270 270 269 268 268 267 267 267 266 266 265 265 263 264 264 263 263
269 271 272 273 274 274 274 273 274 274 274 274 276 278 279 281 281 280 281 279 277 276 272 271 271 271 270 270 269 269 268 266 265 265 264 264 264 263 263 263 264 263 261
269 269 269 270 271 272 273 272 272 272 273 273 274 275 277 277 276 276 277 278 277 276 273 271 270 269 269 268 267 266 265 264 264 264 263 263 263 262 262 261 262 261 258
269 270 270 269 270 271 271 271 272 272 272 272 273 275 277 275 275 275 276 277 277 276 271 270 267 266 266 266 265 265 264 264 263 263 262 262 262 260 262 262 261 260 259
267 268 269 268 269 269 270 270 270 270 270 270 271 273 276 275 275 275 275 274 275 272 270 269 267 266 265 264 264 263 263 263 262 262 262 261 261 260 260 260 259 259 258
267 267 267 267 268 268 268 268 268 268 269 269 270 270 269 270 272 271 270 269 268 268 269 269 267 266 265 264 264 264 262 262 263 262 261 260 260 259 259 258 258 257 257
266 267 266 266 266 267 267 267 267 267 267 267 268 268 268 268 269 270 269 268 267 266 265 265 266 264 263 262 262 262 263 263 262 261 261 260 259 259 259 258 258 257 256
265 265 265 265 265 265 265 266 265 266 266 266 266 267 267 267 267 268 268 266 265 264 264 263 263 263 263 261 261 260 261 263 260 260 260 260 259 258 257 257 256 255 253
264 264 264 264 264 264 264 264 264 265 265 265 265 265 266 265 266 266 265 264 263 263 262 261 261 261 261 261 260 260 260 262 259 258 258 258 257 257 256 255 254 254 252
Wind_Speed
5 4 3 3 2 3 4 4 5 4 5 6 6 6 6 8 8 7 7 6 6 6 4 4 5 5 4 4 3 2 3 2 2 3 3 7 4 4 4 4 3 3 5
5 4 3 2 2 1 2 2 1 4 3 4 5 5 6 5 6 7 7 6 7 6 6 5 5 5 6 5 3 4 3 1 1 6 7 4 5 4 4 4 3 3 2
4 4 3 3 3 3 3 2 2 2 2 2 2 4 4 4 5 4 4 5 6 6 7 7 8 7 7 5 5 4 3 3 1 4 4 2 3 2 3 3 3 2 2
5 4 4 4 4 3 2 2 2 1 2 2 3 2 3 4 4 5 5 5 5 5 5 6 6 7 7 7 5 5 4 4 3 5 4 4 2 2 1 2 2 2 1
6 6 6 4 5 5 4 4 4 3 3 3 3 3 3 4 4 6 6 7 8 7 6 5 5 4 7 6 5 6 6 5 4 5 4 3 4 3 3 2 1 1 2
7 8 6 5 4 4 4 4 4 4 4 3 4 4 5 4 5 8 6 6 6 7 8 6 6 7 7 8 5 7 5 7 7 5 4 5 4 5 4 3 1 1 2
7 8 6 6 6 5 4 5 5 6 5 5 6 5 6 6 9 12 11 5 8 8 9 8 7 6 8 8 10 9 7 8 3 4 7 6 7 6 5 5 3 1 1
9 9 8 6 8 6 6 6 6 5 7 6 7 7 7 6 10 13 11 7 7 8 8 9 9 10 9 10 10 8 7 5 4 3 6 5 6 6 4 3 3 2 0
7 7 9 8 9 8 8 8 7 7 7 8 6 7 8 7 12 15 13 6 7 8 8 8 8 9 13 16 9 10 8 7 6 9 12 12 12 10 6 5 3 3 2
7 8 9 9 9 10 10 8 7 7 8 5 7 7 7 8 15 19 17 6 8 6 6 7 9 9 17 19 9 9 9 10 9 9 9 10 10 8 7 3 3 2 3
9 10 10 9 9 9 10 8 6 6 6 6 7 7 8 9 9 21 22 7 7 7 7 7 6 16 18 19 14 8 9 11 12 7 6 6 6 5 4 3 3 1 2
8 9 9 9 8 7 8 7 5 6 7 8 8 7 6 7 10 20 23 18 13 8 8 6 7 18 18 18 13 12 14 13 6 6 6 5 5 4 4 4 3 2 1
8 9 9 8 8 7 8 8 6 6 7 8 7 8 7 6 7 18 22 21 17 8 5 9 14 20 18 14 16 14 12 7 7 6 6 5 4 5 5 3 3 1 3
9 9 9 8 8 7 6 6 7 7 7 8 8 8 8 7 8 8 9 11 15 11 10 8 12 15 13 9 7 11 5 5 5 6 5 5 5 4 4 3 2 2 1
8 8 8 7 8 7 7 7 7 8 9 8 8 8 8 9 9 14 13 10 10 11 8 7 8 9 8 8 6 7 6 5 5 5 6 5 5 5 4 3 2 2 2
9 7 6 7 6 7 7 8 13 18 20 21 21 17 8 15 15 19 22 22 20 20 9 9 9 8 8 8 8 6 6 7 6 5 5 5 6 5 5 4 3 3 2
8 9 7 7 7 6 6 7 9 9 17 19 22 22 25 18 17 18 22 23 22 21 10 10 10 9 8 8 8 8 8 7 7 6 6 6 5 5 4 4 4 3 3
8 10 7 7 7 7 7 8 7 8 9 8 12 19 21 20 18 20 23 22 12 17 10 8 9 9 9 9 8 8 7 8 8 7 6 6 6 6 6 6 5 3 3
7 7 7 7 7 7 7 8 8 8 9 8 8 10 12 19 20 21 25 13 11 12 11 10 10 10 10 9 8 8 7 7 7 7 6 6 6 5 5 5 5 5 3
7 9 8 7 7 7 7 7 8 8 9 8 8 8 6 8 9 10 11 12 10 9 7 10 8 7 7 8 8 8 7 8 7 7 7 7 7 6 6 6 5 5 5
6 6 8 7 8 8 7 8 8 8 8 8 8 7 14 9 9 9 9 11 10 9 9 9 8 7 7 7 7 7 8 8 8 7 7 7 7 7 6 6 5 5 2
6 6 6 7 7 8 8 8 8 8 9 9 8 8 19 8 9 8 6 5 4 6 8 9 8 8 8 9 8 8 8 8 8 8 8 7 7 6 6 6 5 5 5
6 7 7 7 7 9 8 8 8 9 9 9 8 7 5 7 9 6 4 4 3 5 6 7 8 7 7 7 8 8 8 8 8 8 8 8 7 7 6 6 6 5 6
7 9 8 8 7 8 8 8 8 10 9 9 8 7 7 7 9 7 6 5 5 5 5 5 6 9 8 7 7 7 7 7 7 8 10 9 8 8 7 6 6 7 5
7 8 8 8 8 8 8 8 8 9 9 8 8 8 7 7 8 6 5 5 5 6 6 6 5 8 11 12 10 10 10 12 9 10 8 8 9 11 8 6 6 5 4
8 8 8 8 8 9 8 9 9 8 8 8 8 7 7 7 7 6 5 5 5 5 6 6 8 10 9 9 10 12 13 14 12 12 8 8 8 7 7 7 8 5 5
Wind_Direction
11 17 16 41 357 311 273 242 237 231 222 216 208 200 188 189 188 189 181 174 169 160 156 178 169 165 160 182 182 181 203 219 210 104 109 135 113 114 117 108 88 66 114
358 358 10 1 325 266 255 263 270 232 219 217 198 197 193 188 183 184 177 167 173 169 161 183 175 180 175 159 172 174 172 181 256 139 132 152 122 121 119 111 109 82 69
342 338 338 332 326 324 323 326 325 327 290 294 243 205 191 183 173 165 157 166 181 173 178 185 180 183 174 168 166 157 148 141 63 128 126 138 109 126 145 119 125 76 95
315 306 300 294 283 259 235 241 258 281 267 241 246 236 201 186 183 168 161 164 157 154 171 191 180 189 178 167 168 159 156 133 143 118 113 136 130 120 120 124 142 96 77
307 304 299 297 297 301 314 317 310 279 255 251 245 227 220 213 193 169 178 175 171 166 168 175 175 174 170 169 165 158 170 144 149 146 142 142 151 156 168 119 110 57 96
308 293 287 280 279 270 284 281 280 274 269 264 240 235 226 222 198 202 192 183 172 173 175 167 148 137 129 124 123 154 168 168 168 161 162 167 148 134 135 132 117 138 158
307 296 289 282 278 257 247 248 241 247 252 251 251 237 235 226 197 201 197 181 180 185 177 169 166 174 160 153 145 128 93 63 69 156 163 157 150 148 146 151 146 166 141
321 316 312 297 282 273 253 248 249 241 234 230 239 239 241 238 205 209 191 186 182 187 185 178 175 167 176 160 152 142 128 108 77 47 105 119 115 127 134 114 133 110 216
318 320 317 308 294 284 270 262 249 237 233 231 227 224 227 231 195 201 190 202 192 187 185 186 179 178 180 174 163 151 143 125 106 110 109 112 116 110 125 142 159 157 160
331 318 310 305 296 287 279 268 256 245 247 231 232 230 226 224 199 200 194 193 189 180 174 181 186 187 185 186 177 166 160 158 147 133 128 128 123 116 118 118 152 159 110
323 318 313 304 292 286 288 283 268 246 248 247 243 231 224 214 211 203 202 198 192 180 183 184 187 198 193 196 190 179 174 152 162 155 153 147 149 148 136 118 97 126 146
312 308 305 305 305 297 282 273 255 248 252 250 242 245 238 224 217 210 206 206 202 192 191 183 180 195 191 196 192 191 179 150 142 152 159 161 158 159 144 131 113 108 12
315 307 302 303 298 288 283 276 263 242 247 253 243 245 238 211 219 220 212 210 215 206 186 182 184 193 191 195 188 192 150 150 155 172 166 167 155 129 125 136 129 169 230
302 310 310 303 299 293 281 273 264 249 250 250 249 243 233 218 210 205 209 208 213 206 194 188 190 187 183 166 183 155 155 176 177 159 161 141 122 137 169 168 175 181 212
306 299 296 293 295 291 277 271 269 258 257 257 252 249 244 237 219 207 204 198 193 190 167 171 188 181 175 164 172 145 158 183 174 155 148 151 155 156 161 160 183 175 207
299 297 300 299 289 289 290 288 271 267 269 267 266 260 253 258 245 224 216 209 200 186 175 181 188 186 179 174 175 165 176 179 178 161 162 166 159 166 162 174 181 201 200
284 293 290 288 287 286 285 285 292 291 280 268 262 262 260 247 245 235 224 214 206 188 190 193 190 184 182 179 179 185 184 180 169 167 167 166 160 167 161 174 192 194 210
264 264 265 270 277 283 285 285 284 284 288 282 260 258 259 250 235 234 226 212 203 197 182 185 185 184 186 185 185 186 178 175 174 172 173 168 167 166 167 179 190 196 206
273 276 282 282 278 278 282 283 278 277 275 276 280 260 255 241 235 231 231 224 207 205 186 192 193 186 183 177 176 176 175 173 169 159 171 173 164 164 175 177 184 176 177
281 272 265 275 275 274 273 269 270 268 270 267 264 261 249 223 229 224 230 229 218 211 186 187 181 178 171 163 160 152 162 167 178 168 176 174 169 178 177 172 176 181 182
274 279 278 277 273 273 268 268 273 272 270 268 266 256 246 240 229 227 229 229 224 203 173 174 170 160 159 161 158 166 177 173 173 178 179 176 172 174 176 172 168 182 185
274 273 279 279 280 277 274 273 270 270 270 269 270 262 260 260 245 237 240 236 206 161 166 162 163 165 172 169 166 175 176 187 168 183 178 172 171 173 167 173 174 184 185
273 276 273 272 270 273 270 268 268 267 269 270 271 267 242 251 263 229 204 182 163 142 151 157 154 155 156 165 164 167 182 184 181 174 175 173 174 171 171 176 178 183 195
280 275 265 268 271 270 270 270 269 265 265 270 269 262 254 252 253 243 208 172 165 161 155 154 155 158 159 165 164 164 180 170 169 173 176 173 169 170 168 182 187 191 188
271 271 271 272 269 269 272 264 262 264 265 263 262 260 257 253 253 247 217 186 177 171 170 163 164 178 176 173 166 170 179 182 167 167 170 168 171 169 173 177 178 190 169
273 269 269 265 265 265 263 264 263 262 260 258 257 254 251 248 245 233 218 198 187 187 176 184 178 179 179 184 181 179 181 185 176 172 163 171 167 172 171 183 185 188 168